Kezdőlap
METAR-TAF:

METAR-TAF

Repülőterek :

Mc Elroy Airfield

Kremmling, Colorado, Amerikai Egyesült Államok

földrajzi szélesség: 40-03-13N, földrajzi hosszúság: 106-22-08W, magasság: 2259 m

Jelenlegi meteorológiai megfigyelések

A jelentés 28 perccel ezelõtt készült, 06:15 UTC
Szélcsend
Hőmérséklet 10°C
Páratartalom 76%
Légköri nyomás 1026 hPa
Látótávolság: 16.1 km
Derült ég

METAR: K20V 130615Z AUTO 00000KT 10SM CLR 10/06 A3029 RMK AO2

Idő: 00:43 (06:43 UTC)


TAF: hiányzik

Meteorológiai megfigyelések és előrejelzések több, mint 4000 repülőtéren (METAR és TAF jelentéseket).

A térképen piros és sárga pontok jelzik az elérhető meteorológiai állomásokat.

Mozgassa az egeret a pont fölött, hogy megjelenjen az állomás neve.

Azután kattintson az időjárási megfigyelések és előrejelzések megtekintéséhez.

A térkép megváltoztatása: kattintson a fekete keresztel jelölt zöld gombra ráközelítéshez, a vonallal jelölt zöld gombra távolításhoz, vagy a zöld nyilakra a szomszédos térképek eléréséhez.


METAR-TAF: